THOR 5

Last updated on Thu Nov 21 2024 00:02:41 GMT+0000 (Coordinated Universal Time)

1 32487U 08006A 24325.60079760 -.00000007 00000+0 00000+0 0 9995 2 32487 0.0067 286.6559 0002740 326.7972 22.1927 1.00272307 61562
UTC large
Height (km)
Speed (km/s)
/
Latitude / Longitude
Inclination (degrees)
Orbital Period (minutes)
Azimuth
Elevation
Range (km)
Doppler Factor

Next 0 passes for location: London (51.5072 / 0.1276)

Sorry there are no passes over London.